CAPE
10 17 7 8 3 3 5 10 28 23 32 29 16 6 3 1 0 0 0 0 0 0 0 0 8 20 19 4 0 0 2 1 7 14 0 2 2 2 3 3 2 4 6
10 8 3 10 0 0 5 8 22 19 17 13 4 1 6 3 2 0 1 0 0 0 0 0 0 3 14 6 2 1 0 2 12 25 1 2 2 2 2 0 0 3 3
3 13 4 10 0 0 7 0 11 10 3 0 1 1 1 8 1 1 0 1 1 1 0 0 0 1 2 0 1 3 0 1 0 0 1 2 2 1 1 1 1 0 0
7 11 17 7 1 1 1 0 7 3 0 0 0 0 1 1 1 1 2 1 1 3 3 0 0 0 0 0 0 0 0 0 0 0 1 2 2 3 1 0 0 0 1
6 13 15 6 2 1 0 2 2 1 2 1 1 1 1 0 0 0 0 0 0 0 0 0 0 1 0 0 0 0 0 0 0 0 1 2 2 1 0 0 0 0 2
6 12 11 5 4 2 1 1 2 1 1 0 0 0 1 1 1 1 0 0 0 0 0 0 1 1 1 2 0 0 0 0 0 1 2 1 2 2 0 0 0 0 0
3 7 4 4 4 2 2 1 2 0 0 0 0 0 0 0 1 0 0 0 0 0 0 0 1 3 1 1 2 2 0 0 0 0 2 0 0 0 0 0 0 0 0
2 2 2 3 4 2 1 0 0 0 0 0 0 0 0 0 0 0 0 0 0 0 1 1 2 3 3 2 1 1 2 1 1 1 1 1 0 0 0 0 0 0 0
2 0 0 2 1 0 0 0 0 0 0 0 1 0 0 1 0 0 0 0 1 1 1 1 2 2 2 1 1 3 4 7 5 4 3 2 2 1 0 0 0 0 0
1 0 0 2 0 0 0 0 0 0 0 0 0 1 1 1 2 1 0 0 0 2 1 2 4 3 1 0 0 0 2 0 0 0 0 1 0 2 1 0 0 0 0
1 0 0 0 0 0 0 0 0 0 0 0 1 1 1 1 3 3 1 0 1 2 2 3 5 3 1 0 0 0 0 0 2 0 0 0 0 0 0 0 0 0 0
1 0 0 0 0 0 0 0 0 0 0 1 1 2 3 3 4 5 4 3 2 1 2 3 3 4 4 3 3 4 3 0 1 0 0 0 0 0 0 0 0 0 0
1 1 0 0 0 0 0 0 0 0 1 2 2 3 5 5 6 5 4 3 2 2 4 7 8 7 7 8 4 2 0 1 1 0 0 0 0 0 0 0 0 0 0
0 0 0 0 0 0 0 0 0 0 1 1 1 1 3 4 1 1 2 3 6 3 0 1 3 8 1 3 4 2 0 0 0 0 0 0 0 0 0 0 0 0 0
0 0 1 0 0 0 0 0 1 2 0 0 1 2 0 2 2 1 0 1 1 3 3 5 4 4 0 1 0 0 0 0 0 0 0 0 0 0 0 0 0 0 0
1 1 1 0 0 0 1 3 7 2 3 2 1 0 1 5 9 8 8 9 7 5 5 2 1 1 0 0 0 0 0 0 0 0 0 0 0 0 0 0 0 0 0
1 2 1 0 0 0 0 1 2 10 12 11 12 10 9 12 13 14 15 8 2 0 0 0 0 0 0 0 0 0 0 0 0 0 0 0 0 0 0 0 0 0 0
1 0 0 0 0 0 0 0 0 0 3 3 10 10 14 15 14 9 5 1 0 0 0 0 0 0 0 0 0 0 0 0 0 0 0 0 0 0 0 0 0 1 0
0 0 0 0 0 0 0 0 0 0 1 3 5 10 10 8 6 2 0 0 0 0 0 0 0 0 0 0 0 0 0 0 0 0 0 0 0 0 0 0 2 0 0
1 1 0 0 0 0 0 0 0 0 2 4 6 2 0 0 1 1 1 0 0 0 0 0 0 0 0 0 1 1 1 1 0 0 0 1 0 0 2 1 1 2 0
2 2 1 3 2 3 4 5 5 4 4 4 4 1 0 0 0 0 0 0 0 0 0 0 0 0 0 0 0 0 0 1 0 0 0 0 0 1 1 1 1 1 1
3 3 3 4 4 3 4 4 3 3 1 1 1 0 0 0 0 0 0 1 1 0 0 0 0 0 0 0 0 0 0 0 0 0 0 0 0 0 0 1 2 2 1
1 1 3 2 3 2 3 1 1 1 1 0 0 0 0 0 0 0 1 2 1 1 1 1 1 0 1 1 1 1 1 0 1 0 0 0 0 0 1 2 1 1 1
1 2 1 2 1 1 0 1 0 0 0 0 0 0 0 0 0 0 1 2 1 2 1 1 1 0 0 0 0 0 1 1 1 0 0 0 0 0 0 0 1 0 1
1 1 1 1 0 1 1 0 0 0 0 0 0 0 0 0 0 0 1 1 0 1 0 0 0 0 0 0 0 0 0 0 0 0 0 0 0 0 0 0 0 1 1
0 0 1 0 0 0 0 0 0 0 0 0 0 0 0 0 0 0 0 0 0 0 0 0 0 0 0 0 0 0 0 0 0 0 0 0 0 0 0 0 0 1 1
CIN
-385 -354 0 -6 -17 -20 -21 -10 0 0 0 -1 -15 -20 -1 -68 0 0 0 0 0 0 0 0 -104 -92 -76 -84 0 0 -64 -53 -23 -20 0 0 0 0 0 0 0 0 0
-387 -256 0 -11 -21 -21 -12 -4 0 -2 -2 -1 -160 0 0 0 -1 -1 -1 0 0 0 0 0 0 -55 -46 -45 -14 0 0 -5 -3 -3 0 0 0 0 0 0 0 0 0
0 0 -6 -3 0 -7 -8 -12 -2 -2 0 0 0 0 -8 -3 0 0 -1 0 -1 -2 -1 0 0 -37 -23 0 -26 -35 -1 0 0 0 0 0 0 0 0 0 0 0 0
0 0 0 0 0 -6 -17 0 -8 0 0 0 0 0 -23 0 0 0 0 0 -1 0 -1 -1 0 0 0 0 0 0 0 0 0 0 0 0 0 0 0 0 0 0 0
0 -1 0 0 0 0 0 0 0 0 0 0 0 0 0 0 0 0 0 0 0 0 0 0 0 0 0 0 0 0 0 0 0 0 0 0 0 0 0 0 0 0 0
0 0 0 -8 -6 -5 0 0 0 0 0 0 0 0 0 0 0 0 0 0 0 0 0 0 0 0 0 0 0 0 0 0 0 0 0 0 0 0 0 0 0 0 0
0 -1 -4 -7 -3 0 0 0 0 0 0 0 0 0 0 0 0 0 0 0 0 0 0 0 0 0 0 0 0 0 0 0 0 0 0 0 0 0 0 0 0 0 0
0 0 -4 -8 -3 0 0 0 0 0 0 0 0 0 0 0 0 0 0 0 0 0 0 0 0 0 0 0 0 0 0 0 0 0 0 0 0 0 0 0 0 0 0
0 0 0 -3 0 0 0 0 0 0 0 0 0 0 0 0 0 0 0 0 0 0 0 0 0 0 0 0 0 0 0 0 0 0 0 0 0 0 0 0 0 0 0
0 0 -1 -2 0 0 0 0 0 0 0 0 0 0 0 0 0 0 0 0 0 0 0 0 0 0 0 0 0 0 0 0 0 0 0 0 0 0 0 0 0 0 0
0 0 0 0 0 0 0 0 0 0 0 0 0 0 0 0 0 0 0 0 0 0 0 0 0 0 0 0 0 0 0 0 0 0 0 0 0 0 0 0 0 0 0
0 0 0 0 0 0 0 0 0 0 0 0 0 0 0 0 0 0 0 0 0 0 0 0 0 0 0 0 0 0 0 0 0 0 0 0 0 0 0 0 0 0 0
0 0 0 0 0 0 0 0 0 0 0 0 0 0 0 0 0 0 0 0 0 0 0 0 0 0 0 0 0 0 0 0 0 0 0 0 0 0 0 0 0 0 0
0 0 0 0 0 0 0 0 0 0 0 0 0 0 0 0 0 0 0 0 0 0 0 0 0 0 0 0 0 0 0 0 0 0 0 0 0 0 0 0 0 0 0
0 0 0 0 0 0 0 0 0 0 0 0 0 0 0 0 0 0 0 0 0 0 0 0 0 0 0 0 0 0 0 0 0 0 0 0 0 0 0 0 0 0 0
0 0 0 0 0 0 0 0 0 0 0 0 0 0 0 0 0 0 0 0 0 0 0 0 0 0 0 0 0 0 0 0 0 0 0 0 0 0 0 0 0 0 0
0 0 0 0 0 0 0 0 0 0 0 0 0 0 0 0 0 0 0 0 0 0 0 0 0 0 0 0 0 0 0 0 0 0 0 0 0 0 0 0 0 0 0
0 0 0 0 -1 -1 0 0 0 0 0 0 0 0 0 0 0 0 0 0 0 0 0 0 0 0 0 0 0 0 0 0 0 0 0 0 0 0 0 0 0 0 0
0 0 0 0 0 0 0 0 0 0 0 0 0 0 0 0 0 0 0 0 0 0 0 0 0 0 0 0 0 0 0 0 0 0 0 0 0 0 0 0 0 0 0
0 0 0 0 0 0 0 0 0 0 0 0 0 0 0 0 0 0 0 0 0 0 0 0 0 0 0 0 0 0 0 0 0 0 0 0 0 0 0 0 0 0 0
0 0 0 0 0 0 0 0 0 0 0 0 0 0 0 0 0 0 0 0 0 0 0 0 0 0 0 0 0 0 0 0 0 0 0 0 0 0 0 0 0 0 0
0 0 0 0 0 0 0 0 0 0 0 0 0 0 0 0 0 0 0 0 0 0 0 0 0 0 0 0 0 0 0 0 0 0 0 0 0 0 0 0 0 0 0
0 0 0 0 0 0 0 0 0 0 0 0 0 0 0 0 0 0 0 0 0 0 0 0 0 0 0 0 0 0 0 0 0 0 0 0 0 0 0 0 0 0 0
0 0 0 0 0 0 0 0 0 0 0 0 0 0 0 0 0 0 0 0 0 0 0 0 0 0 0 0 0 0 0 0 0 0 0 0 0 0 0 0 0 0 0
0 0 0 0 0 0 0 0 0 0 0 0 0 0 0 0 0 0 0 0 0 0 0 0 0 0 0 0 0 0 0 0 0 0 0 0 0 0 0 0 0 0 0
0 0 0 0 0 0 0 0 0 0 0 0 0 0 0 0 0 0 0 0 0 0 0 0 0 0 0 0 0 0 0 0 0 0 0 0 0 0 0 0 0 0 0
Wind_Speed
14 14 13 10 10 7 6 5 8 8 10 12 11 10 15 19 19 17 16 15 16 15 13 13 11 8 6 4 3 4 5 4 5 2 3 5 5 7 8 8 7 9 9
14 14 13 11 9 7 6 6 7 7 8 9 10 12 16 14 19 21 19 17 18 16 15 14 13 9 13 11 8 8 7 8 6 7 3 4 6 7 7 9 7 6 7
11 14 13 12 10 8 7 5 5 5 4 4 5 7 6 15 17 18 19 19 18 16 18 17 15 15 14 10 10 8 6 3 3 2 4 3 5 3 5 6 7 6 6
9 14 14 13 10 8 8 7 5 5 4 4 3 3 2 6 9 12 15 18 16 14 12 11 11 14 12 9 6 5 4 5 3 4 5 4 4 5 6 4 4 3 3
11 12 13 12 10 8 8 8 6 6 5 5 5 5 5 4 6 9 9 13 14 13 12 12 11 16 21 15 5 5 5 4 4 5 5 5 5 5 5 4 3 3 3
11 13 13 12 10 9 8 8 7 6 6 5 5 6 6 5 17 16 14 14 14 14 16 16 16 22 26 29 30 30 16 8 9 6 8 9 9 6 5 6 5 4 2
11 11 13 13 11 10 9 9 7 7 7 8 7 8 8 8 19 22 20 13 15 13 15 14 15 12 19 19 29 31 30 30 18 12 13 7 7 6 4 6 7 5 4
12 12 12 13 12 11 10 9 9 7 9 8 9 9 11 10 20 26 26 17 16 15 14 14 15 15 15 17 19 20 18 16 15 12 13 11 10 7 7 6 6 6 1
11 12 12 13 12 11 11 10 9 11 9 10 9 12 14 12 16 24 24 17 18 17 14 14 15 16 23 25 19 20 18 16 20 25 24 23 20 18 12 5 7 6 4
10 11 11 11 12 12 13 13 9 11 12 10 13 13 17 14 18 18 20 14 18 14 15 17 24 19 22 21 16 14 15 12 11 12 11 13 13 13 14 10 6 6 5
10 7 9 11 12 13 12 13 14 14 14 13 15 13 14 14 15 22 21 14 13 14 13 12 12 25 25 22 19 13 14 13 13 10 9 8 8 8 7 7 7 5 5
9 7 11 11 10 11 15 12 14 15 16 14 15 14 11 13 21 26 29 26 23 16 15 12 16 27 27 25 17 23 21 13 9 9 9 8 7 6 6 6 7 6 4
11 10 12 14 12 12 13 13 11 12 13 12 12 13 13 12 14 31 32 32 30 18 13 24 30 28 27 22 23 19 13 9 8 9 8 7 6 6 6 5 6 8 6
12 12 9 12 15 12 10 8 7 11 10 11 13 14 13 12 11 13 15 19 29 21 20 15 17 17 17 15 13 12 9 8 8 9 8 6 5 6 6 6 7 8 7
10 10 10 11 12 13 14 10 12 9 11 11 13 11 13 14 11 16 17 13 12 15 17 11 10 10 10 10 10 10 9 8 8 7 7 6 6 5 6 6 6 6 6
10 9 9 9 9 12 14 16 26 23 27 25 22 16 13 26 28 27 28 29 29 23 12 11 10 10 10 9 10 9 8 8 8 7 6 6 5 6 5 5 5 6 7
10 10 9 10 9 10 13 15 18 22 31 30 28 27 28 28 29 29 27 26 23 17 11 11 10 9 9 9 9 8 8 7 7 6 6 5 5 5 5 5 6 7 7
11 13 10 9 10 10 12 13 12 14 15 15 23 22 29 29 27 27 24 20 12 12 10 10 10 9 9 9 8 8 7 6 5 5 5 5 5 5 5 6 6 7 8
9 8 9 9 10 11 11 12 12 14 14 14 14 16 19 26 23 20 16 10 11 11 9 9 9 9 8 8 7 7 6 6 5 4 4 5 5 4 4 5 6 7 9
12 17 13 11 11 11 11 12 12 12 12 11 11 11 11 12 10 10 10 10 10 9 9 9 8 8 8 7 7 6 6 5 5 5 4 4 4 3 4 5 6 7 7
9 11 14 11 10 10 11 11 11 11 11 11 11 9 11 9 10 10 9 8 8 9 9 8 8 8 7 6 5 5 5 5 4 3 3 3 3 4 4 5 5 6 7
10 10 10 11 10 11 11 10 11 11 11 11 10 11 14 9 9 9 9 9 8 9 7 8 7 6 5 5 5 4 4 3 2 2 3 3 4 3 4 4 5 6 7
10 11 11 11 11 13 11 11 10 11 11 10 9 9 9 9 9 9 9 8 8 7 7 7 7 6 5 4 3 3 2 2 2 2 4 4 4 4 4 5 6 7 7
10 11 12 11 10 10 10 10 11 12 11 10 9 8 9 9 9 9 8 7 7 7 6 5 5 5 5 3 2 1 1 1 1 2 4 4 4 4 4 5 6 7 7
10 11 10 10 10 10 10 10 10 10 10 9 9 9 9 8 8 8 7 6 6 5 5 4 3 5 4 3 2 1 2 3 3 4 4 5 5 6 5 5 6 7 7
9 10 10 9 9 9 10 10 10 9 9 9 8 8 8 8 7 7 5 5 5 4 4 3 4 3 2 2 2 2 3 4 4 4 4 4 4 4 4 6 7 6 8
Wind_Direction
174 176 175 178 172 161 167 193 220 225 214 207 214 212 191 186 188 181 182 179 179 164 158 153 154 151 156 162 181 174 168 157 208 206 91 68 67 78 72 74 69 95 74
179 179 172 172 164 160 176 186 201 208 222 221 221 220 211 197 188 180 178 178 180 176 165 171 178 181 199 197 200 204 194 190 204 230 88 89 71 81 80 70 60 52 82
178 177 166 178 163 169 183 177 192 190 178 175 203 216 215 204 181 183 179 178 178 183 178 180 185 191 198 189 189 199 195 161 158 167 109 80 77 41 75 68 48 34 69
187 182 176 175 161 168 163 169 183 158 138 121 132 163 153 154 163 175 186 174 173 173 177 172 179 187 183 170 152 141 118 117 105 105 93 98 92 57 64 28 41 28 44
186 182 179 164 158 161 155 164 152 157 155 132 113 94 95 97 149 139 139 114 103 94 84 80 72 74 70 62 88 82 100 96 91 81 81 76 58 58 45 7 11 337 93
188 187 170 151 158 167 156 153 152 137 128 106 99 97 80 60 89 91 118 105 102 101 98 85 81 82 81 81 77 68 62 92 82 89 78 80 65 59 39 32 16 15 20
182 185 167 152 158 161 157 152 142 112 102 86 69 75 61 66 103 99 91 95 99 97 94 101 96 92 90 90 81 77 71 71 71 92 96 88 77 48 40 32 26 9 12
183 176 164 156 160 159 150 122 106 98 101 96 84 75 77 62 101 101 97 94 90 86 92 96 100 97 95 99 93 84 77 75 77 85 90 92 82 60 55 46 11 346 43
184 178 171 162 158 142 128 121 113 106 91 84 80 85 89 79 88 105 103 96 93 90 88 91 96 100 105 101 96 97 92 85 83 86 87 82 74 66 57 63 35 24 5
183 178 170 161 146 138 129 121 104 101 100 94 88 82 91 92 90 98 107 111 104 100 93 91 95 102 102 103 101 106 101 108 107 93 82 75 67 62 55 54 45 39 21
321 133 130 131 126 123 116 121 117 113 107 100 94 87 88 94 98 101 105 105 109 109 101 98 95 99 97 95 95 96 101 109 99 93 87 79 65 56 49 44 44 40 17
4 74 95 104 114 114 118 118 119 119 111 108 104 96 87 88 97 101 101 100 104 99 99 97 99 98 94 92 89 100 102 103 98 89 80 66 63 51 36 30 29 18 359
42 31 85 94 92 97 113 118 114 115 117 116 109 105 102 100 101 104 103 103 103 100 102 105 100 96 95 90 91 89 87 87 91 89 79 71 55 41 28 18 16 12 353
38 50 61 84 90 92 91 89 93 113 110 113 114 115 113 108 105 108 104 103 101 99 97 94 99 94 89 94 91 84 81 76 82 83 81 75 59 40 29 12 7 359 345
63 66 63 78 81 88 74 78 85 58 108 115 116 116 120 116 115 117 117 115 113 109 109 104 101 101 103 96 90 86 85 81 79 74 71 66 55 35 27 12 7 352 346
68 64 66 64 75 90 95 92 86 99 97 102 106 115 107 113 118 116 116 118 118 119 113 113 107 105 103 105 98 92 85 79 71 72 67 55 47 36 11 9 358 354 343
82 85 86 88 95 89 101 102 104 89 92 97 101 106 107 115 114 112 112 111 112 111 100 108 108 109 109 103 101 101 98 84 82 75 69 52 33 26 5 2 359 350 344
73 76 81 87 92 100 96 100 101 104 104 99 94 102 104 106 108 108 111 107 100 89 101 108 109 110 107 106 106 104 100 95 82 79 67 54 30 17 8 0 352 344 339
70 69 76 82 80 86 91 95 96 97 99 99 99 91 97 100 100 102 104 100 107 107 109 106 105 106 106 104 103 102 102 91 82 77 63 45 24 7 0 339 337 345 322
72 78 81 79 81 84 86 89 91 90 91 90 89 92 92 100 101 94 91 96 100 102 105 105 106 106 106 108 111 117 119 105 88 67 48 30 8 342 335 334 347 340 340
79 78 86 84 84 85 85 86 88 90 88 84 83 82 96 103 101 97 98 96 101 105 108 107 106 103 107 116 123 110 97 84 67 62 29 8 347 325 337 339 333 328 333
85 84 84 84 85 85 86 87 87 89 90 93 96 87 93 91 95 98 99 98 98 99 104 109 107 104 108 113 113 106 103 103 99 53 11 332 318 332 330 331 327 331 341
84 87 85 84 87 91 88 85 93 97 100 101 101 100 98 98 98 99 99 98 98 97 97 101 102 101 94 89 86 101 130 115 70 20 332 321 317 330 326 329 331 335 347
86 89 93 91 91 93 96 98 100 101 106 107 106 105 100 98 97 96 97 97 96 90 86 92 92 96 107 108 117 142 104 78 349 318 302 302 303 316 323 323 327 333 322
104 106 105 106 105 103 106 103 103 104 105 107 106 104 102 100 101 96 93 96 100 103 93 86 86 108 107 93 88 79 48 359 312 312 287 277 293 305 307 304 320 316 317
100 101 102 106 107 111 112 113 112 111 111 111 110 108 106 105 105 108 110 109 107 99 103 101 102 93 110 158 163 340 314 315 305 310 290 280 295 302 298 307 310 307 310